Hourly Data Report for June 22, 2020

BORDEN AWOS
ONTARIO
Current Station Operator: DND

44°16'20.000" N
79°54'42.000" W
222.50 m
611B002
71534
YBN

Download Data

Hourly Data (June 2020)
Hourly Data Report for June 22, 2020
TIME
LST
Temp Definition
°C
Dew Point Definition
°C
Rel Hum Definition
%
Precip. Amount Definition
mm

Wind Dir Definition
10's deg

Wind Spd Definition
km/h
Visibility Definition
km
Stn Press Definition
kPa
Hmdx Definition


Wind Chill Definition


Weather Definition


00:00 18.5 18.2 98     0 0.8 98.56     LegendNANA
01:00 18.3 17.5 95   16 4 14.5 98.58     LegendNANA
02:00 19.0 17.8 93   16 7 14.5 98.58     LegendNANA
03:00 17.7 16.9 95     0 6.4 98.59     LegendNANA
04:00 16.7 16.5 99     0 2.3 98.59     LegendNANA
05:00
06:00 19.7 18.7 94   20 6 12.9 98.63     LegendNANA
07:00 21.8 18.9 84   19 9 14.5 98.63 28   LegendNANA
08:00 23.3 19.0 77   25 4 14.5 98.62 30   LegendNANA
09:00 24.0 18.5 71   19 4 14.5 98.63 30   LegendNANA
10:00 26.9 18.1 59   26 6 14.5 98.65 33   LegendNANA
11:00 27.4 17.3 54   30 6 14.5 98.66 33   LegendNANA
12:00 27.8 17.5 54   15 9 14.5 98.65 33   LegendNANA
13:00 27.2 17.6 56   28 15 14.5 98.64 33   Rain
14:00 28.6 17.3 50   27 9 14.5 98.56 34   LegendNANA
15:00 27.4 17.0 53   24 11 14.5 98.51 33   LegendNANA
16:00 26.6 16.9 55   25 9 14.5 98.47 32   LegendNANA
17:00 26.5 17.7 59   28 6 14.5 98.40 32   LegendNANA
18:00 26.7 17.3 56   25 4 14.5 98.37 32   LegendNANA
19:00 26.1 17.6 60     0 14.5 98.35 32   LegendNANA
20:00 24.6 18.7 70   14 15 14.5 98.35 31   LegendNANA
21:00 22.5 19.2 82   24 6 14.5 98.39 29   LegendNANA
22:00 22.0 19.2 84   5 6 14.5 98.32 29   LegendNANA
23:00 21.4 19.1 87   12 7 14.5 98.29 28   LegendNANA

Notes on Data Quality.

Legend

  • E = Estimated
  • M = Missing
  • NA = Not Available*
  • [empty] = Indicates an unobserved value
Date modified: